Weather History for Lamoni, IA

Change the Weather History Date:

Monday, November 21, 2011

  Actual Average Record
Temperature  
Mean Temperature 35 °F 37 °F  
Max Temperature 42 °F 46 °F 71 °F (1990)
Min Temperature 27 °F 28 °F 4 °F (1964)
Degree Days  
Heating Degree Days 30 28  
Month to date heating degree days 450 486  
Since 1 July heating degree days 926 970  
Cooling Degree Days 0 0  
Month to date cooling degree days 0 0  
Year to date cooling degree days 1144 946  
Moisture  
Dew Point 32 °F    
Average Humidity 86    
Maximum Humidity 92    
Minimum Humidity 79    
Precipitation  
Precipitation 0.00 in 0.05 in 0.21 in (2013)
Month to date precipitation 3.37 1.71  
Year to date precipitation 32.49  
Sea Level Pressure  
Sea Level Pressure 30.20 in    
Wind  
Wind Speed 4 mph (NNE)    
Max Wind Speed 9 mph    
Max Gust Speed 12 mph    
Visibility 8 miles    
Events      
T = Trace of Precipitation, MM = Missing Value Source: NWS Daily Summary

Daily Weather History Graph

Daily Weather History Graph

Search for Another Location

Airport:

Trip Planner

Search our weather history database for the weather conditions in past years. The results will help you decide how hot, cold, wet, or windy it might be!

Date:

Astronomy

Nov. 21, 2011 Rise Set
Actual Time 7:08 AM CST 4:53 PM CST
Civil Twilight 6:39 AM CST 5:23 PM CST
Nautical Twilight 6:05 AM CST 5:56 PM CST
Astronomical Twilight 5:33 AM CST 6:29 PM CST
Moon 2:47 AM CST (11/21) 2:17 PM CST (11/21)
Length of Visible Light 10h 44m
Length of Day
9h 44m
Waning Crescent, 17% of the Moon is Illuminated
Nov 21
Waning Crescent
Nov 25
New
Dec 2
First Quarter
Dec 10
Full
Dec 17
Last Quarter

Hourly Weather History & Observations

Time (CST) Temp. Windchill Dew Point Humidity Pressure Visibility Wind Dir Wind Speed Gust Speed Precip Events Conditions
12:53 AM 27.0 °F 21.6 °F 24.1 °F 89% 30.26 in 10.0 mi NE 4.6 mph - N/A   Clear
1:53 AM 28.0 °F 22.8 °F 25.0 °F 88% 30.27 in 9.0 mi North 4.6 mph - N/A   Overcast
2:06 AM 28.4 °F 22.2 °F 24.8 °F 86% 30.22 in 10.0 mi NNE 5.8 mph - N/A   Overcast
2:36 AM 28.4 °F 22.2 °F 24.8 °F 86% 30.23 in 10.0 mi NNE 5.8 mph - N/A   Overcast
2:53 AM 28.9 °F 23.9 °F 26.1 °F 89% 30.26 in 10.0 mi NE 4.6 mph - N/A   Overcast
3:53 AM 30.0 °F 26.5 °F 26.1 °F 85% 30.26 in 10.0 mi North 3.5 mph - N/A   Overcast
4:41 AM 30.2 °F 25.4 °F 26.6 °F 86% 30.22 in 10.0 mi NNE 4.6 mph - N/A   Overcast
4:53 AM 30.0 °F 25.2 °F 27.0 °F 88% 30.26 in 10.0 mi NNE 4.6 mph - N/A   Overcast
5:53 AM 30.0 °F 26.5 °F 27.0 °F 88% 30.26 in 10.0 mi NNE 3.5 mph - N/A   Overcast
6:53 AM 30.0 °F 26.5 °F 27.0 °F 88% 30.25 in 10.0 mi NE 3.5 mph - N/A   Overcast
7:53 AM 30.9 °F 27.5 °F 28.0 °F 89% 30.27 in 9.0 mi North 3.5 mph - N/A   Overcast
8:53 AM 33.1 °F 30.0 °F 28.9 °F 85% 30.28 in 10.0 mi North 3.5 mph - N/A   Overcast
9:53 AM 33.1 °F 30.0 °F 30.9 °F 92% 30.29 in 2.0 mi North 3.5 mph - N/A   Overcast
10:15 AM 33.8 °F 30.8 °F 32.0 °F 93% 30.24 in 3.0 mi North 3.5 mph - N/A   Overcast
10:29 AM 33.8 °F 29.6 °F 32.0 °F 93% 30.24 in 2.5 mi North 4.6 mph - N/A   Overcast
10:53 AM 35.1 °F 30.1 °F 32.0 °F 89% 30.27 in 3.0 mi NNE 5.8 mph - N/A   Overcast
12:53 PM 39.0 °F - 35.1 °F 86% 30.22 in 7.0 mi Calm Calm - N/A   Overcast
1:16 PM 39.2 °F - 35.6 °F 87% 30.16 in 7.0 mi Calm Calm - N/A   Overcast
1:23 PM 39.2 °F - 35.6 °F 87% 30.15 in 7.0 mi Calm Calm - N/A   Overcast
1:53 PM 39.9 °F 37.8 °F 35.1 °F 83% 30.17 in 7.0 mi ENE 3.5 mph - N/A   Overcast
2:53 PM 41.0 °F 38.0 °F 35.1 °F 79% 30.15 in 8.0 mi ENE 4.6 mph - N/A   Overcast
3:53 PM 41.0 °F 36.4 °F 36.0 °F 82% 30.17 in 7.0 mi NE 6.9 mph - N/A   Overcast
4:53 PM 39.9 °F - 37.0 °F 89% 30.17 in 6.0 mi Calm Calm - N/A   Overcast
5:08 PM 39.2 °F - 37.4 °F 93% 30.13 in 7.0 mi Calm Calm - N/A   Overcast
5:53 PM 39.9 °F 36.7 °F 37.0 °F 89% 30.15 in 6.0 mi NNE 4.6 mph - N/A   Overcast
6:53 PM 39.0 °F 35.7 °F 36.0 °F 89% 30.13 in 8.0 mi NE 4.6 mph - N/A   Overcast
7:53 PM 39.0 °F 35.7 °F 36.0 °F 89% 30.12 in 8.0 mi NNE 4.6 mph - N/A   Overcast
8:53 PM 39.9 °F - 36.0 °F 86% 30.15 in 9.0 mi Calm Calm - N/A   Overcast
9:53 PM 39.9 °F - 36.0 °F 86% 30.14 in 8.0 mi Calm Calm - N/A   Overcast
10:53 PM 39.9 °F 37.8 °F 36.0 °F 86% 30.13 in 8.0 mi North 3.5 mph - N/A   Overcast
11:29 PM 41.0 °F - 35.6 °F 81% 30.11 in 9.0 mi Calm Calm - N/A   Overcast
11:53 PM 39.9 °F - 36.0 °F 86% 30.13 in 8.0 mi Calm Calm - N/A   Overcast